SWR4DM LSZH-EPKK

Flight info

Callsign SWR4DM
Flight time 1h 20m
Altitude 35000
Route DEGES Z2 XEBIX N871 BEPAS DCT NELPA DCT PADKA
Aircraft A321/M-SDE3FGHIRWY/LB1

Departure

Time 2026-04-26 16:55
Airport Zürich Airport (LSZH)

Arrival

Time 2026-04-26 18:16
Airport Kraków John Paul II International Airport (EPKK)
Time Latitude Longitude Altitude Speed Heading
2026-04-26 16:29 47.45422 8.55873 1407 ft 0 kts 186°
2026-04-26 16:47 47.45425 8.55873 1407 ft 3 kts 186°
2026-04-26 16:47 47.45451 8.55879 1413 ft 4 kts 188°
2026-04-26 16:47 47.45472 8.55877 1415 ft 3 kts 150°
2026-04-26 16:47 47.45493 8.55854 1409 ft 4 kts 129°
2026-04-26 16:48 47.45505 8.55821 1409 ft 4 kts 99°
2026-04-26 16:48 47.45507 8.55782 1413 ft 4 kts 92°
2026-04-26 16:48 47.45507 8.55771 1413 ft 0 kts 96°
2026-04-26 16:51 47.45505 8.55796 1413 ft 6 kts 96°
2026-04-26 16:51 47.45499 8.55889 1407 ft 12 kts 96°
2026-04-26 16:51 47.45492 8.55986 1411 ft 14 kts 96°
2026-04-26 16:51 47.45482 8.56128 1407 ft 13 kts 96°
2026-04-26 16:52 47.45497 8.56247 1415 ft 10 kts 53°
2026-04-26 16:52 47.45521 8.56293 1417 ft 7 kts 52°
2026-04-26 16:52 47.45556 8.56356 1413 ft 8 kts 51°
2026-04-26 16:52 47.45593 8.56446 1416 ft 12 kts 78°
2026-04-26 16:53 47.45589 8.56554 1418 ft 9 kts 97°
2026-04-26 16:53 47.45581 8.56665 1422 ft 14 kts 96°
2026-04-26 16:53 47.45571 8.56804 1420 ft 13 kts 96°
2026-04-26 16:53 47.45563 8.56925 1420 ft 11 kts 95°
2026-04-26 16:54 47.45590 8.57013 1423 ft 9 kts 17°
2026-04-26 16:54 47.45638 8.57020 1425 ft 6 kts
2026-04-26 16:54 47.45664 8.56975 1424 ft 8 kts 288°
2026-04-26 16:54 47.45676 8.56837 1422 ft 34 kts 277°
2026-04-26 16:55 47.45731 8.56087 1414 ft 110 kts 276°
2026-04-26 16:55 47.45829 8.54646 1393 ft 170 kts 276°
2026-04-26 16:55 47.45983 8.52819 1972 ft 176 kts 276°
2026-04-26 16:55 47.46109 8.51062 3011 ft 169 kts 278°
2026-04-26 16:56 47.46150 8.47771 4335 ft 163 kts 251°
2026-04-26 16:56 47.45465 8.46379 4672 ft 178 kts 233°
2026-04-26 16:56 47.44794 8.44737 4873 ft 196 kts 245°
2026-04-26 16:57 47.44147 8.42887 5183 ft 209 kts 245°
2026-04-26 16:57 47.43226 8.41170 5496 ft 223 kts 220°
2026-04-26 16:57 47.40200 8.40817 6394 ft 239 kts 150°
2026-04-26 16:58 47.39107 8.42646 6943 ft 244 kts 113°
2026-04-26 16:58 47.38864 8.44263 7293 ft 245 kts 92°
2026-04-26 16:58 47.38938 8.50493 7985 ft 283 kts 88°
2026-04-26 16:59 47.38992 8.53416 8422 ft 293 kts 88°
2026-04-26 16:59 47.39091 8.59506 9704 ft 300 kts 89°
2026-04-26 17:00 47.39182 8.65859 10435 ft 327 kts 89°
2026-04-26 17:00 47.39266 8.72955 10811 ft 360 kts 89°
2026-04-26 17:00 47.39309 8.76681 11333 ft 365 kts 89°
2026-04-26 17:01 47.39352 8.80437 11926 ft 367 kts 88°
2026-04-26 17:01 47.39394 8.84217 12515 ft 370 kts 88°
2026-04-26 17:01 47.39435 8.88027 13123 ft 372 kts 88°
2026-04-26 17:01 47.39475 8.91862 13730 ft 374 kts 88°
2026-04-26 17:02 47.39514 8.95718 14285 ft 377 kts 88°
2026-04-26 17:02 47.39552 8.99594 14796 ft 379 kts 88°
2026-04-26 17:02 47.39590 9.03395 15279 ft 382 kts 88°
2026-04-26 17:02 47.39627 9.07331 15774 ft 384 kts 88°
2026-04-26 17:03 47.39660 9.11284 16246 ft 387 kts 88°
2026-04-26 17:03 47.39693 9.15276 16726 ft 390 kts 88°
2026-04-26 17:03 47.39724 9.19286 17189 ft 392 kts 88°
2026-04-26 17:03 47.39755 9.23343 17661 ft 395 kts 88°
2026-04-26 17:04 47.39786 9.27404 18122 ft 398 kts 88°
2026-04-26 17:04 47.39815 9.31493 18546 ft 400 kts 88°
2026-04-26 17:04 47.39842 9.35569 18908 ft 403 kts 88°
2026-04-26 17:04 47.39867 9.39716 19255 ft 405 kts 88°
2026-04-26 17:05 47.39890 9.43884 19585 ft 408 kts 88°
2026-04-26 17:05 47.39911 9.48081 19925 ft 410 kts 88°
2026-04-26 17:05 47.39933 9.52301 20268 ft 412 kts 88°
2026-04-26 17:05 47.39953 9.56542 20595 ft 414 kts 88°
2026-04-26 17:06 47.39970 9.60805 20930 ft 417 kts 88°
2026-04-26 17:06 47.39986 9.65093 21261 ft 419 kts 88°
2026-04-26 17:06 47.40002 9.69400 21594 ft 421 kts 88°
2026-04-26 17:06 47.40017 9.73740 21932 ft 423 kts 88°
2026-04-26 17:07 47.40028 9.78098 22275 ft 426 kts 88°
2026-04-26 17:07 47.40040 9.82480 22618 ft 428 kts 88°
2026-04-26 17:07 47.40053 9.86817 22951 ft 431 kts 87°
2026-04-26 17:07 47.40062 9.91253 23309 ft 433 kts 88°
2026-04-26 17:08 47.40071 9.95719 23680 ft 436 kts 87°
2026-04-26 17:08 47.40077 10.00213 24000 ft 439 kts 87°
2026-04-26 17:08 47.40081 10.04738 24333 ft 441 kts 87°
2026-04-26 17:08 47.40080 10.09288 24656 ft 443 kts 87°
2026-04-26 17:09 47.40079 10.13844 24974 ft 445 kts 87°
2026-04-26 17:09 47.40077 10.16869 25195 ft 446 kts 87°
2026-04-26 17:09 47.40067 10.23016 25632 ft 449 kts 88°
2026-04-26 17:09 47.40057 10.27633 25966 ft 450 kts 88°
2026-04-26 17:10 47.40046 10.32256 26290 ft 452 kts 88°
2026-04-26 17:10 47.40033 10.36903 26598 ft 454 kts 88°
2026-04-26 17:10 47.40022 10.41508 26918 ft 456 kts 88°
2026-04-26 17:10 47.40148 10.46182 27226 ft 455 kts 80°
2026-04-26 17:11 47.40750 10.50762 27526 ft 454 kts 71°
2026-04-26 17:11 47.41776 10.55169 27809 ft 454 kts 67°
2026-04-26 17:11 47.42868 10.59561 28078 ft 456 kts 67°
2026-04-26 17:11 47.43954 10.63968 28362 ft 458 kts 67°
2026-04-26 17:12 47.46125 10.72865 28874 ft 462 kts 68°
2026-04-26 17:12 47.47213 10.77352 29105 ft 464 kts 68°
2026-04-26 17:13 47.49397 10.86360 29463 ft 467 kts 68°
2026-04-26 17:13 47.50481 10.90839 29661 ft 468 kts 68°
2026-04-26 17:13 47.52666 10.99911 30149 ft 468 kts 68°
2026-04-26 17:14 47.53750 11.04446 30385 ft 467 kts 68°
2026-04-26 17:14 47.55920 11.13502 30837 ft 466 kts 68°
2026-04-26 17:14 47.57004 11.18024 31052 ft 465 kts 68°
2026-04-26 17:15 47.59163 11.27045 31493 ft 464 kts 68°
2026-04-26 17:15 47.60236 11.31551 31725 ft 463 kts 68°
2026-04-26 17:15 47.61305 11.36057 31925 ft 463 kts 68°
2026-04-26 17:16 47.62370 11.40571 32113 ft 463 kts 69°
2026-04-26 17:16 47.63380 11.45103 32297 ft 464 kts 70°
2026-04-26 17:16 47.64328 11.49668 32529 ft 463 kts 71°
2026-04-26 17:16 47.65237 11.54258 32704 ft 463 kts 71°
2026-04-26 17:17 47.66133 11.58851 32914 ft 463 kts 71°
2026-04-26 17:17 47.67023 11.63381 33134 ft 463 kts 71°
2026-04-26 17:17 47.67936 11.67954 33361 ft 462 kts 71°
2026-04-26 17:17 47.68859 11.72519 33579 ft 461 kts 71°
2026-04-26 17:18 47.69787 11.77079 33793 ft 461 kts 70°
2026-04-26 17:18 47.70710 11.81638 34002 ft 461 kts 71°
2026-04-26 17:18 47.71611 11.86210 34204 ft 460 kts 69°
2026-04-26 17:18 47.72774 11.90612 34363 ft 457 kts 60°
2026-04-26 17:19 47.76327 11.98233 34657 ft 450 kts 42°
2026-04-26 17:19 47.78680 12.01367 34796 ft 447 kts 36°
2026-04-26 17:19 47.81061 12.04264 34934 ft 448 kts 36°
2026-04-26 17:20 47.83470 12.07215 35099 ft 448 kts 37°
2026-04-26 17:20 47.85093 12.09213 35161 ft 448 kts 37°
2026-04-26 17:20 47.90652 12.16084 35190 ft 446 kts 37°
2026-04-26 17:21 47.95422 12.21991 35188 ft 446 kts 36°
2026-04-26 17:21 48.00208 12.27900 35194 ft 446 kts 36°
2026-04-26 17:22 48.05000 12.33820 35201 ft 447 kts 36°
2026-04-26 17:22 48.09751 12.39720 35202 ft 447 kts 36°
2026-04-26 17:23 48.14536 12.45688 35208 ft 448 kts 36°
2026-04-26 17:23 48.19322 12.51676 35213 ft 448 kts 37°
2026-04-26 17:24 48.24112 12.57661 35216 ft 448 kts 35°
2026-04-26 17:24 48.29064 12.63324 35214 ft 447 kts 32°
2026-04-26 17:25 48.34112 12.68780 35215 ft 447 kts 32°
2026-04-26 17:25 48.39142 12.74293 35215 ft 448 kts 34°
2026-04-26 17:26 48.43780 12.80625 35212 ft 451 kts 39°
2026-04-26 17:26 48.48361 12.87073 35213 ft 451 kts 39°
2026-04-26 17:27 48.52959 12.93514 35213 ft 451 kts 39°
2026-04-26 17:27 48.57477 13.00115 35209 ft 452 kts 42°
2026-04-26 17:28 48.61808 13.06924 35207 ft 453 kts 43°
2026-04-26 17:28 48.66161 13.13845 35216 ft 454 kts 43°
2026-04-26 17:29 48.69854 13.19636 35207 ft 461 kts 42°
2026-04-26 17:29 48.75076 13.27762 35209 ft 464 kts 42°
2026-04-26 17:30 48.79579 13.34797 35209 ft 464 kts 43°
2026-04-26 17:30 48.84064 13.41859 35213 ft 464 kts 43°
2026-04-26 17:31 48.88458 13.49056 35218 ft 467 kts 50°
2026-04-26 17:31 48.91669 13.57663 35222 ft 472 kts 66°
2026-04-26 17:32 48.94162 13.66899 35228 ft 472 kts 65°
2026-04-26 17:32 48.96671 13.76147 35233 ft 473 kts 65°
2026-04-26 17:33 48.99181 13.85406 35233 ft 473 kts 65°
2026-04-26 17:34 49.02910 13.99274 35242 ft 474 kts 65°
2026-04-26 17:34 49.05393 14.08577 35251 ft 473 kts 65°
2026-04-26 17:35 49.07861 14.17880 35250 ft 473 kts 65°
2026-04-26 17:35 49.10327 14.27200 35249 ft 473 kts 65°
2026-04-26 17:36 49.12782 14.36517 35256 ft 473 kts 65°
2026-04-26 17:36 49.15218 14.45801 35255 ft 473 kts 65°
2026-04-26 17:37 49.17660 14.55123 35258 ft 473 kts 65°
2026-04-26 17:37 49.20108 14.64481 35261 ft 473 kts 65°
2026-04-26 17:38 49.23753 14.78512 35262 ft 473 kts 66°
2026-04-26 17:38 49.26167 14.87892 35262 ft 474 kts 66°
2026-04-26 17:39 49.28550 14.97288 35273 ft 474 kts 67°
2026-04-26 17:39 49.30678 15.06860 35277 ft 475 kts 70°
2026-04-26 17:40 49.31981 15.13274 35280 ft 475 kts 70°
2026-04-26 17:40 49.34605 15.26215 35280 ft 475 kts 70°
2026-04-26 17:41 49.36616 15.35821 35284 ft 475 kts 69°
2026-04-26 17:41 49.38647 15.45473 35270 ft 475 kts 69°
2026-04-26 17:42 49.40663 15.55136 35276 ft 475 kts 69°
2026-04-26 17:42 49.42327 15.63189 35281 ft 475 kts 69°
2026-04-26 17:43 49.44316 15.72871 35280 ft 475 kts 70°
2026-04-26 17:43 49.46295 15.82558 35281 ft 475 kts 69°
2026-04-26 17:44 49.48270 15.92259 35274 ft 475 kts 70°
2026-04-26 17:44 49.50232 16.01944 35270 ft 475 kts 70°
2026-04-26 17:45 49.52188 16.11643 35267 ft 475 kts 70°
2026-04-26 17:45 49.54140 16.21357 35266 ft 475 kts 70°
2026-04-26 17:46 49.56070 16.31017 35262 ft 475 kts 70°
2026-04-26 17:46 49.57999 16.40752 35264 ft 475 kts 70°
2026-04-26 17:47 49.59616 16.48918 35266 ft 476 kts 70°
2026-04-26 17:47 49.61851 16.60283 35271 ft 476 kts 70°
2026-04-26 17:48 49.63767 16.70070 35273 ft 476 kts 70°
2026-04-26 17:48 49.65662 16.79802 35272 ft 476 kts 70°
2026-04-26 17:49 49.67554 16.89594 35271 ft 476 kts 70°
2026-04-26 17:49 49.69438 16.99377 35267 ft 476 kts 70°
2026-04-26 17:50 49.71325 17.09187 35266 ft 476 kts 70°
2026-04-26 17:50 49.73199 17.18997 35262 ft 476 kts 70°
2026-04-26 17:51 49.75063 17.28822 35269 ft 476 kts 70°
2026-04-26 17:51 49.76922 17.38661 35270 ft 477 kts 70°
2026-04-26 17:52 49.78775 17.48536 35276 ft 477 kts 70°
2026-04-26 17:52 49.80615 17.58392 35276 ft 477 kts 70°
2026-04-26 17:53 49.82451 17.68274 35128 ft 478 kts 70°
2026-04-26 17:53 49.83372 17.73231 34885 ft 477 kts 70°
2026-04-26 17:54 49.85186 17.83067 34413 ft 478 kts 70°
2026-04-26 17:54 49.86096 17.88025 34167 ft 479 kts 70°
2026-04-26 17:54 49.87004 17.93003 33776 ft 480 kts 71°
2026-04-26 17:54 49.87605 17.98160 32492 ft 495 kts 80°
2026-04-26 17:55 49.87993 18.03534 31353 ft 504 kts 80°
2026-04-26 17:55 49.88347 18.08902 30860 ft 496 kts 81°
2026-04-26 17:55 49.88680 18.14210 30191 ft 494 kts 80°
2026-04-26 17:55 49.89009 18.19492 29567 ft 489 kts 80°
2026-04-26 17:56 49.89338 18.24712 28970 ft 483 kts 80°
2026-04-26 17:56 49.90005 18.34989 27801 ft 473 kts 79°
2026-04-26 17:57 49.90664 18.45053 26673 ft 464 kts 79°
2026-04-26 17:57 49.90981 18.50001 26127 ft 459 kts 79°
2026-04-26 17:57 49.91294 18.54909 25604 ft 454 kts 79°
2026-04-26 17:57 49.91601 18.59766 25085 ft 450 kts 79°
2026-04-26 17:58 49.92485 18.73931 23557 ft 434 kts 79°
2026-04-26 17:59 49.93046 18.83100 22571 ft 419 kts 78°
2026-04-26 17:59 49.93316 18.87564 22099 ft 412 kts 78°
2026-04-26 17:59 49.93582 18.91962 21623 ft 406 kts 78°
2026-04-26 17:59 49.93844 18.96292 21152 ft 401 kts 78°
2026-04-26 18:00 49.94102 19.00581 20675 ft 397 kts 78°
2026-04-26 18:00 49.94356 19.04826 20200 ft 392 kts 78°
2026-04-26 18:00 49.94605 19.09029 19729 ft 389 kts 77°
2026-04-26 18:00 49.94846 19.13136 19265 ft 386 kts 77°
2026-04-26 18:01 49.95087 19.17275 18799 ft 383 kts 77°
2026-04-26 18:01 49.95326 19.21380 18308 ft 381 kts 77°
2026-04-26 18:01 49.95558 19.25457 17842 ft 377 kts 77°
2026-04-26 18:01 49.95784 19.29482 17385 ft 372 kts 77°
2026-04-26 18:02 49.96008 19.33472 16945 ft 369 kts 77°
2026-04-26 18:02 49.96160 19.36150 16647 ft 366 kts 77°
2026-04-26 18:02 49.96453 19.41333 16188 ft 358 kts 77°
2026-04-26 18:02 49.96663 19.45134 15937 ft 350 kts 77°
2026-04-26 18:03 49.96865 19.48848 15689 ft 341 kts 77°
2026-04-26 18:03 49.97062 19.52483 15441 ft 334 kts 77°
2026-04-26 18:03 49.97252 19.56031 15202 ft 326 kts 77°
2026-04-26 18:03 49.97440 19.59516 14959 ft 319 kts 77°
2026-04-26 18:04 49.97622 19.62904 14720 ft 312 kts 77°
2026-04-26 18:04 49.97801 19.66234 14483 ft 306 kts 76°
2026-04-26 18:04 49.97974 19.69446 14251 ft 298 kts 76°
2026-04-26 18:05 49.98455 19.75739 13630 ft 283 kts 68°
2026-04-26 18:05 49.98869 19.78681 13276 ft 282 kts 69°
2026-04-26 18:05 49.99278 19.81679 12912 ft 279 kts 69°
2026-04-26 18:05 49.99669 19.84582 12491 ft 277 kts 69°
2026-04-26 18:06 50.00059 19.87496 12066 ft 274 kts 70°
2026-04-26 18:06 50.00447 19.90382 11646 ft 270 kts 70°
2026-04-26 18:06 50.00832 19.93229 11245 ft 267 kts 70°
2026-04-26 18:06 50.01213 19.96045 10866 ft 264 kts 70°
2026-04-26 18:07 50.01588 19.98830 10497 ft 262 kts 70°
2026-04-26 18:07 50.01960 20.01581 10139 ft 259 kts 71°
2026-04-26 18:07 50.02325 20.04286 9738 ft 257 kts 71°
2026-04-26 18:07 50.02571 20.06114 9442 ft 256 kts 71°
2026-04-26 18:08 50.03052 20.09686 9061 ft 254 kts 71°
2026-04-26 18:08 50.03416 20.12372 8784 ft 254 kts 72°
2026-04-26 18:08 50.03782 20.15058 8436 ft 253 kts 72°
2026-04-26 18:08 50.04145 20.17736 8063 ft 252 kts 72°
2026-04-26 18:09 50.04553 20.20361 7718 ft 246 kts 62°
2026-04-26 18:09 50.05506 20.22454 7384 ft 233 kts 33°
2026-04-26 18:09 50.06915 20.23539 7054 ft 224 kts
2026-04-26 18:09 50.08447 20.23517 6750 ft 221 kts 346°
2026-04-26 18:10 50.09952 20.23022 6437 ft 222 kts 346°
2026-04-26 18:10 50.11453 20.22497 6118 ft 220 kts 340°
2026-04-26 18:10 50.12683 20.21184 5873 ft 217 kts 308°
2026-04-26 18:10 50.13241 20.18992 5693 ft 223 kts 276°
2026-04-26 18:11 50.13012 20.16639 5519 ft 218 kts 261°
2026-04-26 18:11 50.12691 20.14369 5315 ft 216 kts 262°
2026-04-26 18:11 50.12383 20.12077 5037 ft 215 kts 262°
2026-04-26 18:11 50.12075 20.09803 4742 ft 215 kts 262°
2026-04-26 18:12 50.11766 20.07529 4446 ft 214 kts 262°
2026-04-26 18:12 50.11459 20.05281 4157 ft 209 kts 262°
2026-04-26 18:12 50.11164 20.03128 3868 ft 196 kts 262°
2026-04-26 18:12 50.10888 20.01109 3600 ft 186 kts 262°
2026-04-26 18:13 50.10621 19.99155 3353 ft 183 kts 263°
2026-04-26 18:13 50.10359 19.97234 3118 ft 181 kts 263°
2026-04-26 18:13 50.10097 19.95322 2854 ft 180 kts 263°
2026-04-26 18:13 50.09929 19.94106 2688 ft 167 kts 262°
2026-04-26 18:14 50.09621 19.91872 2399 ft 150 kts 263°
2026-04-26 18:14 50.09408 19.90324 2196 ft 147 kts 263°
2026-04-26 18:14 50.09196 19.88780 1987 ft 147 kts 262°
2026-04-26 18:14 50.08976 19.87206 1802 ft 147 kts 261°
2026-04-26 18:15 50.08761 19.85661 1572 ft 147 kts 260°
2026-04-26 18:15 50.08550 19.84097 1354 ft 146 kts 262°
2026-04-26 18:15 50.08338 19.82578 1166 ft 143 kts 258°
2026-04-26 18:15 50.08128 19.81060 979 ft 143 kts 262°
2026-04-26 18:16 50.07920 19.79563 808 ft 138 kts 261°
2026-04-26 18:16 50.07668 19.77714 794 ft 45 kts 255°
2026-04-26 18:16 50.07599 19.77236 799 ft 44 kts 258°
2026-04-26 18:17 50.07557 19.76921 802 ft 16 kts 258°
2026-04-26 18:17 50.07490 19.76841 802 ft 14 kts 181°
2026-04-26 18:17 50.07388 19.76877 800 ft 14 kts 168°
2026-04-26 18:17 50.07311 19.76936 800 ft 11 kts 103°
2026-04-26 18:18 50.07320 19.77042 800 ft 10 kts 78°
2026-04-26 18:18 50.07338 19.77174 800 ft 16 kts 77°
2026-04-26 18:18 50.07366 19.77378 800 ft 20 kts 77°
2026-04-26 18:18 50.07395 19.77580 800 ft 19 kts 78°
2026-04-26 18:19 50.07422 19.77774 800 ft 18 kts 77°
2026-04-26 18:19 50.07448 19.77958 800 ft 17 kts 78°
2026-04-26 18:19 50.07471 19.78133 800 ft 16 kts 78°
2026-04-26 18:19 50.07494 19.78298 800 ft 15 kts 78°
2026-04-26 18:20 50.07515 19.78452 800 ft 14 kts 78°
2026-04-26 18:20 50.07537 19.78611 800 ft 18 kts 77°
2026-04-26 18:20 50.07568 19.78824 800 ft 21 kts 77°
2026-04-26 18:20 50.07579 19.78899 800 ft 21 kts 77°
2026-04-26 18:21 50.07628 19.79255 800 ft 20 kts 78°
2026-04-26 18:21 50.07656 19.79458 800 ft 19 kts 78°
2026-04-26 18:21 50.07683 19.79651 800 ft 18 kts 77°
2026-04-26 18:21 50.07707 19.79821 800 ft 13 kts 78°
2026-04-26 18:22 50.07721 19.79924 800 ft 8 kts 79°
2026-04-26 18:22 50.07704 19.79988 800 ft 6 kts 150°
2026-04-26 18:22 50.07637 19.79967 800 ft 13 kts 173°
2026-04-26 18:22 50.07534 19.79945 800 ft 16 kts 194°
2026-04-26 18:23 50.07440 19.79954 800 ft 12 kts 167°
2026-04-26 18:23 50.07403 19.80050 800 ft 13 kts 80°
2026-04-26 18:23 50.07422 19.80184 800 ft 11 kts 77°
2026-04-26 18:23 50.07436 19.80275 800 ft 7 kts 77°
2026-04-26 18:24 50.07435 19.80340 800 ft 4 kts 131°
2026-04-26 18:24 50.07400 19.80340 800 ft 8 kts 178°
2026-04-26 18:24 50.07369 19.80377 800 ft 3 kts 147°
2026-04-26 18:24 50.07355 19.80385 800 ft 0 kts 165°